sat.trackr.live / text

‹ back to catalog

STARLINK-32789

NORAD 62529 · 2025-004U

PAYLOAD ACTIVE UNKNOWN

§ Identity

Operator
Country
US
Launch date
2025-01-08
Launch site
AFETR
Launch vehicle
Mass (kg)
RCS (m²)

Purposes: comms

External: N2YO · Heavens-Above · Gunter

§ Orbital elements

Epoch: 2026-05-25T00:53:09.824064Z

Period
94.27 min
Inclination
42.9955°
Eccentricity
0.0000651
Mean motion
15.27592342 rev/d
Perigee alt
482.6 km
Apogee alt
483.5 km
Semi-major
6,861.1 km
B*
6.2285e-4
RAAN
148.8102°
Arg perigee
295.9275°
Mean anomaly
64.1509°
Rev number
7,813

§ Raw data

STARLINK-327891 62529U 25004U   26145.03691926  .00016923  00000+0  62285-3 0  99952 62529  42.9955 148.8102 0000651 295.9275  64.1509 15.27592342 78139

JSON: /api/v1/satellites/62529 · /tle

For live sub-satellite position, see the globe view (requires WebGL).

§ Visibility from observer

Set your observer location to see the next 7 days of passes ≥ 10°. The values pass through the URL so the page stays shareable.

No JS? Fill the form by hand. The geolocation button needs JavaScript.